Tracking 22873 objects as of 23-Apr-2021
HD Live streaming from Space Station
objects crossing your sky now

STTW-3

Track STTW-3 now!
STTW-3 is classified as:


NORAD ID: 19710
Int'l Code: 1988-111A
Perigee: 35,781.1 km
Apogee: 35,848.7 km
Inclination: 15.0 °
Period: 1,437.2 minutes
Semi major axis: 42185 km
RCS: 6.3096 m2 (large)
Launch date: December 22, 1988
Source: People's Republic of China (PRC)
Launch site: Xichang Space Center, China (XSC)
aabbcc
Your satellite tracking list
Your tracking list is empty




NASA's NSSDC Master Catalog

Two Line Element Set (TLE):
1 19710U 88111A   21111.61688859 -.00000180  00000-0  00000-0 0  9994
2 19710  14.9712   0.5168 0008007  81.6560  74.4249  1.00196411111966
Source of the keplerian elements: AFSPC